• In Hungary
  • List of Countries
  • For 7 days
  • Water Temperature
  • Satellite Maps
  • Weather Map
  • News
  • Weather Widgets
  • user-avatar
    Login

    Hourly Weather Niewiemko

    Today, 17 July, Tuesday

    Time Temperature Precipitation Wind Pressure Humidity
    00:00 +19°C° 0.4 mm 2 mps 750 mmHg 92%
    01:00 +19°C° 0 mm 2 mps 750 mmHg 95%
    02:00 +19°C° 1.1 mm 2 mps 749 mmHg 95%
    03:00 +19°C° 1.1 mm 2 mps 749 mmHg 95%
    04:00 +19°C° 1.1 mm 2 mps 749 mmHg 94%
    05:00 +19°C° 1.3 mm 3 mps 749 mmHg 94%
    06:00 +19°C° 1.3 mm 3 mps 749 mmHg 94%
    07:00 +19°C° 1.3 mm 3 mps 749 mmHg 94%
    08:00 +20°C° 1.2 mm 3 mps 749 mmHg 92%
    09:00 +21°C° 1.2 mm 3 mps 749 mmHg 89%
    10:00 +21°C° 1.2 mm 4 mps 749 mmHg 87%
    11:00 +21°C° 1.6 mm 4 mps 749 mmHg 86%
    12:00 +21°C° 1.6 mm 4 mps 749 mmHg 86%
    13:00 +21°C° 1.6 mm 4 mps 749 mmHg 86%
    14:00 +21°C° 0.9 mm 4 mps 749 mmHg 85%
    15:00 +21°C° 0.9 mm 4 mps 749 mmHg 85%
    16:00 +21°C° 0.9 mm 5 mps 748 mmHg 84%
    17:00 +21°C° 0.4 mm 4 mps 748 mmHg 86%
    18:00 +21°C° 0.4 mm 4 mps 748 mmHg 88%
    19:00 +20°C° 0.4 mm 4 mps 748 mmHg 89%
    20:00 +20°C° 0.3 mm 4 mps 748 mmHg 91%
    21:00 +20°C° 0.3 mm 4 mps 748 mmHg 93%
    22:00 +19°C° 0.3 mm 4 mps 748 mmHg 94%
    23:00 +19°C° 0.7 mm 4 mps 748 mmHg 95%

    Tomorrow, 18 July, Wednesday

    Time Temperature Precipitation Wind Pressure Humidity
    00:00 +19°C° 0.7 mm 4 mps 748 mmHg 95%
    01:00 +19°C° 0.7 mm 4 mps 748 mmHg 96%
    02:00 +19°C° 1.8 mm 4 mps 748 mmHg 96%
    03:00 +19°C° 1.8 mm 4 mps 748 mmHg 96%
    04:00 +19°C° 1.8 mm 4 mps 748 mmHg 96%
    05:00 +19°C° 2.6 mm 4 mps 748 mmHg 96%
    06:00 +19°C° 2.6 mm 4 mps 748 mmHg 96%
    07:00 +19°C° 2.6 mm 4 mps 748 mmHg 96%
    08:00 +20°C° 2.3 mm 4 mps 748 mmHg 96%
    09:00 +20°C° 2.3 mm 4 mps 749 mmHg 95%
    10:00 +20°C° 2.3 mm 4 mps 749 mmHg 94%
    11:00 +20°C° 1 mm 5 mps 749 mmHg 93%
    12:00 +20°C° 1 mm 5 mps 749 mmHg 93%
    13:00 +21°C° 1 mm 6 mps 749 mmHg 92%
    14:00 +21°C° 0.5 mm 6 mps 750 mmHg 92%
    15:00 +21°C° 0.5 mm 6 mps 750 mmHg 91%
    16:00 +21°C° 0.5 mm 6 mps 750 mmHg 91%
    17:00 +20°C° 0.3 mm 5 mps 750 mmHg 92%
    18:00 +20°C° 0.3 mm 5 mps 750 mmHg 92%
    19:00 +20°C° 0.3 mm 5 mps 750 mmHg 93%
    20:00 +20°C° 0.2 mm 5 mps 751 mmHg 93%
    21:00 +19°C° 0.2 mm 5 mps 751 mmHg 94%
    22:00 +19°C° 0.2 mm 4 mps 751 mmHg 95%
    23:00 +19°C° 0.4 mm 4 mps 751 mmHg 95%

    Day after tomorrow, 19 July, Thursday

    Time Temperature Precipitation Wind Pressure Humidity
    00:00 +19°C° 0.4 mm 4 mps 751 mmHg 95%
    01:00 +19°C° 0.4 mm 4 mps 751 mmHg 96%
    02:00 +19°C° 0.3 mm 4 mps 751 mmHg 96%
    03:00 +19°C° 0.3 mm 4 mps 751 mmHg 96%
    04:00 +19°C° 0.3 mm 4 mps 751 mmHg 96%
    05:00 +19°C° 0.2 mm 4 mps 751 mmHg 95%
    06:00 +19°C° 0.2 mm 4 mps 751 mmHg 95%
    07:00 +19°C° 0.2 mm 4 mps 751 mmHg 95%
    08:00 +20°C° 0.3 mm 4 mps 751 mmHg 93%
    09:00 +20°C° 0.3 mm 4 mps 751 mmHg 91%
    10:00 +21°C° 0.3 mm 4 mps 752 mmHg 89%
    11:00 +21°C° 0.4 mm 4 mps 752 mmHg 87%
    12:00 +22°C° 0.4 mm 4 mps 752 mmHg 86%
    13:00 +22°C° 0.4 mm 5 mps 752 mmHg 84%
    14:00 +22°C° 0.2 mm 5 mps 752 mmHg 84%
    15:00 +22°C° 0.2 mm 5 mps 752 mmHg 84%
    16:00 +22°C° 0.2 mm 5 mps 752 mmHg 84%
    17:00 +21°C° 0.1 mm 5 mps 752 mmHg 86%
    18:00 +21°C° 0.1 mm 5 mps 752 mmHg 88%
    19:00 +20°C° 0.1 mm 4 mps 752 mmHg 89%
    20:00 +20°C° 0.2 mm 4 mps 752 mmHg 91%
    21:00 +19°C° 0.2 mm 4 mps 753 mmHg 92%
    22:00 +19°C° 0.2 mm 4 mps 753 mmHg 94%
    23:00 +18°C° 0.1 mm 3 mps 753 mmHg 94%

    20 July, Friday

    Time Temperature Precipitation Wind Pressure Humidity
    00:00 +18°C° 0.1 mm 3 mps 753 mmHg 94%
    01:00 +18°C° 0.1 mm 3 mps 753 mmHg 94%
    02:00 +18°C° 0 mm 3 mps 753 mmHg 94%
    03:00 +17°C° 0 mm 3 mps 753 mmHg 94%
    04:00 +17°C° 0 mm 3 mps 753 mmHg 94%
    05:00 +18°C° 0 mm 3 mps 753 mmHg 91%
    06:00 +19°C° 0 mm 3 mps 753 mmHg 88%
    07:00 +19°C° 0 mm 3 mps 753 mmHg 85%
    08:00 +21°C° 0 mm 3 mps 753 mmHg 79%
    09:00 +22°C° 0 mm 4 mps 753 mmHg 73%
    10:00 +23°C° 0 mm 4 mps 753 mmHg 67%
    11:00 +25°C° 0 mm 4 mps 753 mmHg 63%
    12:00 +26°C° 0 mm 4 mps 753 mmHg 60%
    13:00 +27°C° 0 mm 5 mps 752 mmHg 57%
    14:00 +27°C° 0 mm 5 mps 752 mmHg 58%
    15:00 +27°C° 0 mm 5 mps 752 mmHg 59%
    16:00 +27°C° 0 mm 5 mps 752 mmHg 60%
    17:00 +25°C° 0 mm 5 mps 752 mmHg 64%
    18:00 +23°C° 0 mm 4 mps 752 mmHg 69%
    19:00 +22°C° 0 mm 4 mps 752 mmHg 73%
    20:00 +20°C° 0 mm 3 mps 752 mmHg 76%
    21:00 +19°C° 0 mm 3 mps 752 mmHg 79%
    22:00 +17°C° 0 mm 3 mps 752 mmHg 81%
    23:00 +17°C° 0 mm 2 mps 752 mmHg 81%

    21 July, Saturday

    Time Temperature Precipitation Wind Pressure Humidity
    00:00 +16°C° 0 mm 2 mps 752 mmHg 80%
    01:00 +16°C° 0 mm 2 mps 752 mmHg 79%
    02:00 +15°C° 0 mm 2 mps 752 mmHg 79%
    03:00 +15°C° 0 mm 2 mps 752 mmHg 80%
    04:00 +15°C° 0 mm 2 mps 752 mmHg 80%
    05:00 +16°C° 0 mm 2 mps 752 mmHg 78%
    06:00 +17°C° 0 mm 3 mps 752 mmHg 75%
    07:00 +19°C° 0 mm 3 mps 752 mmHg 73%
    08:00 +20°C° 0 mm 3 mps 752 mmHg 68%
    09:00 +22°C° 0 mm 3 mps 752 mmHg 62%
    10:00 +25°C° 0 mm 3 mps 752 mmHg 57%
    11:00 +25°C° 0 mm 3 mps 752 mmHg 55%
    12:00 +26°C° 0 mm 3 mps 752 mmHg 53%
    13:00 +27°C° 0 mm 3 mps 752 mmHg 51%
    14:00 +27°C° 0 mm 3 mps 752 mmHg 52%
    15:00 +26°C° 0 mm 4 mps 752 mmHg 54%
    16:00 +26°C° 0 mm 4 mps 752 mmHg 55%
    17:00 +25°C° 0 mm 3 mps 752 mmHg 60%
    18:00 +24°C° 0 mm 3 mps 752 mmHg 64%
    19:00 +21°C° 0 mm 3 mps 752 mmHg 68%
    20:00 +20°C° 0 mm 3 mps 752 mmHg 73%
    21:00 +18°C° 0 mm 3 mps 752 mmHg 77%
    22:00 +17°C° 0 mm 2 mps 752 mmHg 81%
    23:00 +16°C° 0 mm 2 mps 752 mmHg 82%

    22 July, Sunday

    Time Temperature Precipitation Wind Pressure Humidity
    00:00 +16°C° 0 mm 2 mps 752 mmHg 84%
    01:00 +15°C° 0 mm 2 mps 752 mmHg 85%
    02:00 +15°C° 0 mm 2 mps 752 mmHg 85%
    03:00 +15°C° 0 mm 1 mps 752 mmHg 86%
    04:00 +14°C° 0 mm 1 mps 752 mmHg 86%
    05:00 +16°C° 0 mm 2 mps 752 mmHg 81%
    06:00 +17°C° 0 mm 2 mps 753 mmHg 77%
    07:00 +19°C° 0 mm 2 mps 753 mmHg 72%
    08:00 +20°C° 0 mm 3 mps 753 mmHg 67%
    09:00 +22°C° 0 mm 3 mps 753 mmHg 63%
    10:00 +24°C° 0 mm 3 mps 753 mmHg 58%
    11:00 +24°C° 0.1 mm 3 mps 753 mmHg 57%
    12:00 +25°C° 0.1 mm 4 mps 753 mmHg 56%
    13:00 +26°C° 0.1 mm 4 mps 752 mmHg 55%
    14:00 +26°C° 0.2 mm 4 mps 752 mmHg 56%
    15:00 +25°C° 0.2 mm 4 mps 752 mmHg 58%
    16:00 +25°C° 0.2 mm 4 mps 752 mmHg 59%
    17:00 +24°C° 0.2 mm 3 mps 752 mmHg 64%
    18:00 +22°C° 0.2 mm 3 mps 752 mmHg 69%
    19:00 +21°C° 0.2 mm 3 mps 752 mmHg 74%
    20:00 +20°C° 0 mm 2 mps 753 mmHg 78%
    21:00 +19°C° 0 mm 2 mps 753 mmHg 82%
    22:00 +18°C° 0 mm 2 mps 753 mmHg 86%
    23:00 +17°C° 0 mm 2 mps 753 mmHg 87%
    Show more